Location: Armidale
(30.5016°S, 151.6662°E)
Time: 12:46:41
(UTC+10:00)

SRMSAT - Visible Passes

Search period start: 05 August 2021 00:00
Search period end: 15 August 2021 00:00
Orbit: 848 x 865 km, 20.0° (Epoch: 04 August)

Date Brightness Start Highest point End Pass type
(mag) Time Alt. Az. Time Alt. Az. Time Alt. Az.
05 Aug ? 17:55:20 10° NNW 17:58:36 15° NNE 18:01:53 10° NE visible
05 Aug ? 19:42:20 10° NW 19:46:10 25° N 19:46:10 25° N visible
06 Aug ? 17:41:51 10° NNW 17:45:29 17° NNE 17:49:08 10° NE visible
06 Aug ? 19:29:09 10° NW 19:34:00 27° N 19:34:00 27° N visible
07 Aug ? 19:15:59 10° NW 19:21:01 28° N 19:21:51 27° NNE visible
08 Aug ? 19:02:51 10° NW 19:07:54 29° N 19:09:42 24° NNE visible
08 Aug ? 20:51:36 10° WNW 20:51:41 10° WNW 20:51:41 10° WNW visible
09 Aug ? 18:49:43 10° NW 18:54:49 29° N 18:57:33 20° NE visible
09 Aug ? 20:38:34 10° WNW 20:39:33 14° WNW 20:39:33 14° WNW visible
10 Aug ? 18:36:37 10° WNW 18:41:43 29° N 18:45:26 16° NE visible
10 Aug ? 20:25:34 10° WNW 20:27:25 17° NW 20:27:25 17° NW visible
11 Aug ? 18:23:31 10° WNW 18:28:37 30° N 18:33:19 12° ENE visible
11 Aug ? 20:12:35 10° WNW 20:15:18 20° NW 20:15:18 20° NW visible
12 Aug ? 18:10:26 10° WNW 18:15:31 29° N 18:20:39 10° ENE visible
12 Aug ? 19:59:37 10° WNW 20:03:13 22° NNW 20:03:13 22° NNW visible
13 Aug ? 17:57:22 10° WNW 18:02:26 29° N 18:07:31 10° NE visible
13 Aug ? 19:46:41 10° WNW 19:51:06 21° NNW 19:51:10 21° NNW visible
14 Aug ? 17:44:19 10° WNW 17:49:20 29° N 17:54:23 10° NE visible
14 Aug ? 19:33:46 10° WNW 19:37:59 20° NNW 19:39:09 19° N visible
